Location: Bacharowice
(49.9333°N, 19.5833°E)
Time: 01:06:27
(UTC+00:00)

USA 305 - Pass Details

Date: 22 September 2021
Orbit: 547 x 588 km, 54.0° (Epoch: 03 October)

Event Time Altitude Azimuth Distance (km) Brightness Sun altitude
Rises 18:48:13 0° 288° (WNW) 2,748 7.9 -20.8°
Reaches altitude 10° 18:50:29 10° 293° (WNW) 1,858 6.7 -21.1°
Maximum altitude 18:54:38 54° 11° (NNE) 695 3.3 -21.7°
Enters shadow 18:55:19 48° 48° (NE) 751 3.3 -21.8°
